Location: ????????
(60.4333°N, 46.4710°E)
Time: 04:10:01
(UTC+00:00)

Cosmos 540 Rocket - Pass Details

Date: 25 November 2020
Orbit: 740 x 753 km, 74.1° (Epoch: 19 January)

Event Time Altitude Azimuth Distance (km) Brightness Sun altitude
Rises 15:01:36 0° 233° (SW) 3,182 7.7 -20.6°
Reaches altitude 10° 15:04:02 10° 239° (WSW) 2,260 6.9 -20.9°
Maximum altitude 15:09:00 49° 314° (NW) 961 4.2 -21.5°
Enters shadow 15:12:04 22° 20° (NNE) 1,592 4.9 -21.9°
